This demonstration page uses our WeatherBlox Daily Observations layout. Learn more.

Left ArrowRight Arrow

39.01783, -85.05884

Hourly Observations for June 20, 2015

Temp ( °F °C ) Dew Point ( °F °C ) Humidity (%) Winds ( mph kmh ) Pressure ( in mb ) Visibility ( mi km ) Precip ( " mm )
12:52 am 00:52 Cloudy with Light Rain 72 22.2 67 19.4 84 84 SSE 14 22 29.91 1013 10 16 0.02 0.51
1:22 am 01:22 Cloudy with Drizzle 72 22 66 19 83 83 S 10 17 29.91 1013 10 16 N/A
1:49 am 01:49 Cloudy with Light Rain 70 21 66 19 88 88 S 8 13 29.88 1012 10 16 N/A
1:52 am 01:52 Cloudy with Light Rain 70 21.1 67 19.4 90 90 SSE 10 17 29.89 1012 10 16 N/A
2:52 am 02:52 Cloudy with Drizzle 69 20.6 67 19.4 93 93 SE 7 11 29.87 1012 10 16 N/A
3:52 am 03:52 Mostly Cloudy with Light Rain 70 21.1 68 20 93 93 SE 9 15 29.85 1011 10 16 N/A
4:52 am 04:52 Cloudy with Light Rain 70 21.1 68 20 93 93 ESE 8 13 29.83 1010 9 14 0.01 0.25
5:52 am 05:52 Cloudy with Light Rain 70 21.1 68 20 93 93 E 10 17 29.82 1010 6 10 0.03 0.76
6:06 am 06:06 Cloudy with Rain 70 21 68 20 94 94 SE 7 11 29.83 1010 6 10 N/A
6:16 am 06:16 Cloudy with Rain 70 21 68 20 94 94 E 7 11 29.83 1010 6 10 N/A
6:33 am 06:33 Cloudy with Heavy Rain 70 21 68 20 94 94 ESE 14 22 29.80 1009 2 3 0.16 4.06
6:41 am 06:41 Cloudy with Heavy Rain 70 21 68 20 94 94 E 12 19 29.80 1009 2 3 0.24 6.10
6:52 am 06:52 Cloudy with Heavy Rain 70 21.1 68 20 93 93 E 13 20 29.80 1009 2 3 0.33 8.38
7:30 am 07:30 Cloudy with Heavy Rain 70 21 70 21 100 100 E 14 22 29.77 1008 2 2 0.11 2.79
7:43 am 07:43 Cloudy with Light Rain 70 21 70 21 100 100 E 14 22 29.77 1008 2 2 0.15 3.81
7:52 am 07:52 Cloudy with Light Rain 70 21.1 69 20.6 97 97 E 14 22 29.77 1008 2 2 0.16 4.06
8:05 am 08:05 Cloudy with Rain 70 21 70 21 100 100 E 14 22 29.77 1008 2 3 0.02 0.51
8:26 am 08:26 Cloudy with Rain 70 21 70 21 100 100 ESE 10 17 29.77 1008 1 2 N/A
8:43 am 08:43 Cloudy with Rain 70 21 70 21 100 100 ESE 9 15 29.77 1008 2 3 N/A
8:52 am 08:52 Cloudy with Light Rain 70 21.1 70 21.1 100 100 ESE 10 17 29.76 1008 2 3 0.14 3.56
9:23 am 09:23 Cloudy with Rain 72 22 70 21 94 94 ESE 9 15 29.77 1008 2 3 0.06 1.52
9:52 am 09:52 Cloudy with Light Rain 71 21.7 71 21.7 100 100 E 7 11 29.75 1008 3 4 0.09 2.29
10:18 am 10:18 Cloudy with Light Rain 72 22 72 22 100 100 ESE 6 9 29.74 1007 3 5 N/A
10:52 am 10:52 Cloudy with Light Rain 73 22.8 72 22.2 96 96 E 7 11 29.74 1007 6 10 N/A
11:52 am 11:52 Cloudy 74 23.3 72 22.2 94 94 E 3 6 29.75 1007 7 11 0.01 0.25
12:52 pm 12:52 Cloudy with Light Rain 74 23.3 72 22.2 94 94 NNW 12 19 29.75 1008 2 2 0.02 0.51
1:05 pm 13:05 Cloudy with Light Rain 73 23 72 22 94 94 NNW 10 17 29.77 1008 2 2 N/A
1:38 pm 13:38 Cloudy 72 22 72 22 100 100 N 16 26 29.77 1008 3 5 N/A
1:52 pm 13:52 Cloudy with Mist and Fog 73 22.8 72 22.2 96 96 N 12 19 29.77 1008 3 5 0.02 0.51
2:11 pm 14:11 Cloudy 73 23 72 22 94 94 NNW 13 20 29.77 1008 10 16 N/A
2:52 pm 14:52 Cloudy 73 22.8 71 21.7 94 94 N 10 17 29.78 1009 10 16 N/A
3:52 pm 15:52 Cloudy 76 24.4 71 21.7 85 85 NW 13 20 29.82 1010 10 16 N/A
4:09 pm 16:09 Cloudy 77 25 72 22 83 83 WNW 8 13 29.83 1010 10 16 N/A
4:52 pm 16:52 Mostly Cloudy 80 26.7 71 21.7 74 74 WNW 7 11 29.81 1010 10 16 N/A
5:52 pm 17:52 Mostly Cloudy 81 27.2 71 21.7 72 72 W 8 13 29.81 1009 10 16 N/A
6:52 pm 18:52 Mostly Cloudy 79 26.1 72 22.2 79 79 WSW 6 9 29.83 1010 10 16 N/A
7:52 pm 19:52 Mostly Cloudy 80 26.7 71 21.7 74 74 W 6 9 29.84 1011 10 16 N/A
8:52 pm 20:52 Partly Cloudy 78 25.6 71 21.7 79 79 N N/A 29.86 1011 10 16 N/A
9:52 pm 21:52 Mostly Cloudy 77 25 71 21.7 82 82 WSW 10 17 29.87 1011 10 16 N/A
10:52 pm 22:52 Mostly Clear 75 23.9 70 21.1 84 84 W 8 13 29.90 1013 8 13 N/A

Powered by AerisWeather